[[{"header":{"parameterUnit":"m.s-1","parameterCategory":1,"la1":30.2991,"la2":30.254,"lo1":-89.0895,"lo2":-89.0444,"dy":0.0017,"dx":0.0017,"nx":28,"ny":28,"refTime":"2024-05-13T03:00:00:Z","depth":0,"parameterNumber":2,"parameterNumberName":"U-component_of_WINDS"},"data":[0,0,0,0,0,0,0,0,0,0,0,0,0,0,0,0,0,0,0,0,0,0,0,0,0,0,0,0,0,0,0,0,0,0,0,0,0,0,0,0,0,0,0,0,0,0,0,0,0,0,0,0,0,0,0,0,0,0,-6.6341,-6.634,0,-6.6268,-6.6267,-6.6266,-6.6252,-6.6252,-6.6253,-6.6253,-6.6163,-6.616,-6.6157,0,0,0,0,0,0,0,0,0,0,0,0,0,-6.6453,-6.6451,-6.6341,-6.634,-6.6339,-6.6268,-6.6267,-6.6266,-6.6252,-6.6252,-6.6253,-6.6254,-6.6164,-6.616,-6.6157,0,0,0,0,0,0,0,0,0,0,0,0,0,-6.6394,-6.6451,-6.6341,-6.6324,-6.6322,-6.6268,-6.6267,-6.6265,-6.6251,-6.6252,-6.6253,-6.6254,-6.6165,-6.6161,-6.6156,-6.611,0,0,-6.6143,-6.6141,0,0,0,0,0,0,0,0,-6.6398,-6.639,-6.6327,-6.6325,-6.6322,-6.627,-6.6273,-6.6213,-6.6251,-6.6278,-6.6253,-6.6255,-6.6197,-6.619,-6.6174,-6.6106,-6.6102,-6.6142,-6.614,-6.6138,-6.6136,0,0,0,0,0,0,0,-6.6402,-6.6393,-6.6311,-6.6326,-6.6323,-6.6315,-6.6307,-6.6262,-6.6232,-6.6275,-6.6274,-6.6266,-6.6195,-6.6178,-6.6171,-6.6101,-6.6142,-6.6138,-6.6136,-6.6134,-6.5985,-6.5984,0,0,0,0,0,0,-6.6411,-6.6397,-6.6314,-6.6309,-6.6364,-6.6312,-6.6304,-6.6286,-6.6233,-6.6226,-6.6266,-6.6266,-6.6185,-6.6177,-6.6168,-6.6107,-6.6138,-6.6133,-6.6131,-6.5986,-6.5985,-6.5983,0,0,0,0,0,0,-6.6413,-6.6404,-6.6317,-6.6353,-6.6341,-6.6309,-6.6289,-6.6284,-6.6266,-6.6226,-6.6219,-6.6254,-6.6185,-6.6174,-6.6124,-6.6103,-6.6131,-6.6127,-6.5988,-6.5986,-6.5984,-6.5986,0,0,0,0,0,0,-6.6417,-6.6405,-6.6391,-6.6353,-6.6339,-6.6279,-6.6288,-6.6282,-6.626,-6.626,-6.6213,-6.6206,-6.6185,-6.6131,-6.612,-6.6098,-6.6124,-6.5989,-6.5987,-6.5985,-6.5988,-6.5984,-6.5982,0,0,0,0,0,-6.6421,-6.6392,-6.639,-6.638,-6.6322,-6.6278,-6.627,-6.6251,-6.6259,-6.6241,-6.6215,-6.6208,-6.6109,-6.6126,-6.6114,-6.609,-6.5991,-6.5988,-6.5985,-6.5989,-6.5985,-6.5982,0,0,0,0,0,0,-6.6424,-6.6387,-6.6384,-6.6343,-6.6315,-6.6276,-6.6254,-6.6248,-6.6213,-6.6214,-6.6187,-6.6176,-6.6127,-6.6103,-6.6124,-6.6039,-6.6049,-6.6044,-6.6056,-6.6052,-6.605,-6.6054,-6.612,0,0,0,0,0,-6.6421,-6.6393,-6.636,-6.6327,-6.6313,-6.6286,-6.6267,-6.6255,-6.6222,-6.6208,-6.6178,-6.6142,-6.6102,-6.6076,-6.6038,-6.5985,-6.5971,-6.5961,-6.5959,-6.5956,-6.595,-6.5915,-6.5909,-6.5974,-6.5974,-6.5974,0,0,-6.6411,-6.6388,-6.6371,-6.6327,-6.6303,-6.627,-6.6276,-6.6242,-6.6215,-6.6201,-6.6153,-6.613,-6.6087,-6.6034,-6.6009,-6.6013,-6.593,-6.5953,-6.5951,-6.5946,-6.5911,-6.5905,-6.59,-6.5972,-6.5972,-6.5973,0,0,-6.6378,-6.636,-6.6329,-6.6306,-6.6271,-6.6254,-6.6246,-6.6208,-6.6193,-6.6146,-6.6134,-6.6099,-6.6032,-6.6001,-6.5977,-6.593,-6.5919,-6.5917,-6.59,-6.5866,-6.5861,-6.5856,-6.5834,-6.5827,-6.5913,-6.5913,-6.5913,0,-6.637,-6.6325,-6.6312,-6.6278,-6.6256,-6.6247,-6.6212,-6.6188,-6.6141,-6.6123,-6.613,-6.6044,-6.6015,-6.5953,-6.5941,-6.5923,-6.5908,-6.5921,-6.5864,-6.5859,-6.5854,-6.5832,-6.5825,-6.5912,-6.5912,-6.5912,-6.5912,0,-6.6315,-6.6283,-6.6261,-6.6221,-6.6196,-6.6162,-6.6138,-6.6114,-6.6104,-6.6083,-6.6031,-6.5996,-6.5948,-6.5933,-6.5921,-6.5867,-6.587,-6.5871,-6.5879,-6.5848,-6.5827,-6.5819,-6.5912,-6.5912,-6.5912,-6.5912,0,0,-6.628,-6.6233,-6.6225,-6.6204,-6.6166,-6.6138,-6.61,-6.6059,-6.6036,-6.6003,-6.5967,-6.591,-6.591,-6.5882,-6.5866,-6.5837,-6.5795,-6.584,-6.5838,-6.5828,-6.5726,-6.5723,-6.5715,-6.5789,-6.5788,-6.5787,-6.5728,0,-6.6239,-6.6178,-6.6164,-6.6108,-6.6076,-6.6066,-6.6032,-6.6001,-6.5981,-6.5945,-6.592,-6.5879,-6.5884,-6.5866,-6.5837,-6.5807,-6.5773,-6.5811,-6.5748,-6.5746,-6.5756,-6.5705,-6.5702,-6.5649,-6.572,-6.5719,-6.5718,0,-6.6183,-6.6153,-6.6096,-6.6059,-6.6045,-6.6016,-6.5974,-6.5943,-6.5905,-6.5891,-6.586,-6.5846,-6.58,-6.5814,-6.5745,-6.5771,-6.5744,-6.5724,-6.5722,-6.5712,-6.5728,-6.5688,-6.5632,-6.5622,-6.5706,-6.5707,-6.5708,0,-6.6159,-6.6104,-6.6062,-6.6045,-6.6002,-6.598,-6.596,-6.5924,-6.5899,-6.586,-6.5842,-6.5797,-6.5771,-6.5733,-6.5705,-6.5719,-6.5637,-6.5649,-6.5618,-6.5618,-6.5598,-6.5599,-6.5532,-6.5588,-6.5588,-6.5588,-6.5589,0,-6.6112,-6.6076,-6.605,-6.6023,-6.5981,-6.5963,-6.5919,-6.5897,-6.5865,-6.5829,-6.5816,-6.5782,-6.5749,-6.5708,-6.5685,-6.5628,-6.5617,-6.56,-6.5593,-6.5599,-6.56,-6.5577,-6.5578,-6.5586,-6.5587,-6.5587,-6.5587,0,-6.6077,-6.6059,-6.6011,-6.5975,-6.5964,-6.5934,-6.5899,-6.5869,-6.5849,-6.5803,-6.5791,-6.5756,-6.5706,-6.5676,-6.5612,-6.5596,-6.5532,-6.5529,-6.5546,-6.5542,-6.551,-6.5512,-6.5422,-6.5407,-6.5478,-6.5478,-6.5477,0,-6.6047,-6.602,-6.5981,-6.5959,-6.594,-6.5904,-6.5879,-6.5858,-6.5831,-6.5784,-6.5758,-6.5709,-6.5669,-6.5589,-6.5553,-6.5502,-6.5494,-6.5467,-6.5486,-6.5491,-6.5487,-6.5488,-6.5482,-6.5462,-6.5461,-6.5461,-6.546,0,-6.5994,-6.5986,-6.5954,-6.5916,-6.5888,-6.5856,-6.5824,-6.5805,-6.5777,-6.5746,-6.5699,-6.5668,-6.5603,-6.5552,-6.5498,-6.5469,-6.5456,-6.5455,-6.5444,-6.5447,-6.5456,-6.5445,-6.5532,-6.5456,-6.5457,-6.5457,-6.5457,-6.5457,-6.5957,-6.5931,-6.59,-6.5862,-6.5837,-6.5806,-6.5776,-6.5752,-6.5714,-6.5664,-6.5653,-6.56,-6.5557,-6.5484,-6.5454,-6.5408,-6.5411,-6.5397,-6.5392,-6.5387,-6.5384,-6.5468,-6.5398,-6.5398,-6.5398,-6.5398,-6.5398,0,-6.59,-6.5879,-6.5846,-6.5803,-6.5771,-6.5771,-6.5734,-6.5705,-6.5662,-6.5626,-6.5587,-6.5528,-6.5477,-6.5438,-6.5384,-6.5354,-6.5346,-6.534,-6.5339,-6.5331,-6.5387,-6.54,-6.5346,-6.5346,-6.5346,-6.5346,-6.5346,-6.5346,-6.5866,-6.5821,-6.5808,-6.5747,-6.5725,-6.5679,-6.5657,-6.5626,-6.5597,-6.5534,-6.5494,-6.5471,-6.5431,-6.5373,-6.5324,-6.5313,-6.5291,-6.5284,-6.5271,-6.5323,-6.5328,-6.5333,-6.5345,-6.5281,-6.5281,-6.5218,-6.5218,-6.5217]},{"header":{"parameterUnit":"m.s-1","parameterCategory":1,"la1":30.2991,"la2":30.254,"lo1":-89.0895,"lo2":-89.0444,"dy":0.0017,"dx":0.0017,"nx":28,"ny":28,"refTime":"2024-05-13T03:00:00:Z","depth":0,"parameterNumber":3,"parameterNumberName":"V-component_of_WINDS"},"data":[0,0,0,0,0,0,0,0,0,0,0,0,0,0,0,0,0,0,0,0,0,0,0,0,0,0,0,0,0,0,0,0,0,0,0,0,0,0,0,0,0,0,0,0,0,0,0,0,0,0,0,0,0,0,0,0,0,0,-6.141,-6.1414,0,-6.1813,-6.1818,-6.1822,-6.2192,-6.2196,-6.2201,-6.2205,-6.2593,-6.2599,-6.2605,0,0,0,0,0,0,0,0,0,0,0,0,0,-6.0932,-6.0939,-6.1409,-6.1414,-6.1419,-6.1812,-6.1818,-6.1823,-6.2191,-6.2196,-6.2202,-6.2207,-6.2591,-6.2598,-6.2606,0,0,0,0,0,0,0,0,0,0,0,0,0,-6.1216,-6.0941,-6.1408,-6.1651,-6.1677,-6.1811,-6.1818,-6.1825,-6.219,-6.2197,-6.2203,-6.221,-6.2589,-6.2598,-6.2607,-6.2526,0,0,-6.2635,-6.2638,0,0,0,0,0,0,0,0,-6.12,-6.1234,-6.161,-6.1634,-6.1664,-6.196,-6.1792,-6.2059,-6.2188,-6.1994,-6.2205,-6.2213,-6.2375,-6.2402,-6.2462,-6.2544,-6.2561,-6.2635,-6.2641,-6.2645,-6.2647,0,0,0,0,0,0,0,-6.118,-6.1218,-6.1568,-6.1615,-6.1647,-6.1731,-6.1779,-6.1844,-6.214,-6.2011,-6.2039,-6.2083,-6.2391,-6.2452,-6.2474,-6.2567,-6.2635,-6.2643,-6.2649,-6.2652,-6.2593,-6.2587,0,0,0,0,0,0,-6.1126,-6.1199,-6.1556,-6.1581,-6.1445,-6.1734,-6.1788,-6.1857,-6.2141,-6.2191,-6.2077,-6.2099,-6.2434,-6.2463,-6.2489,-6.2406,-6.2645,-6.2653,-6.2659,-6.26,-6.2592,-6.2584,0,0,0,0,0,0,-6.1115,-6.1155,-6.1539,-6.1398,-6.1453,-6.1735,-6.181,-6.1861,-6.1924,-6.2191,-6.2243,-6.2087,-6.244,-6.2476,-6.2514,-6.2424,-6.2657,-6.2666,-6.2609,-6.2598,-6.2588,-6.2241,0,0,0,0,0,0,-6.1099,-6.1148,-6.1126,-6.1395,-6.146,-6.1563,-6.1805,-6.1864,-6.1941,-6.1974,-6.2214,-6.226,-6.2448,-6.2498,-6.2523,-6.2441,-6.2673,-6.2618,-6.2604,-6.2591,-6.2262,-6.222,-6.2185,0,0,0,0,0,-6.1081,-6.1009,-6.1124,-6.1164,-6.144,-6.1558,-6.1594,-6.1819,-6.1933,-6.1908,-6.208,-6.2253,-6.2433,-6.2499,-6.253,-6.2449,-6.2624,-6.2608,-6.2592,-6.2279,-6.2229,-6.2186,0,0,0,0,0,0,-6.0715,-6.1049,-6.1179,-6.1194,-6.1346,-6.1621,-6.1597,-6.176,-6.1875,-6.19,-6.2167,-6.2218,-6.2222,-6.2342,-6.241,-6.2382,-6.2551,-6.2541,-6.2302,-6.2257,-6.2219,-6.2184,-6.268,0,0,0,0,0,-6.0638,-6.0714,-6.1,-6.0984,-6.1055,-6.1311,-6.1372,-6.1533,-6.1697,-6.176,-6.1935,-6.208,-6.2169,-6.2222,-6.2319,-6.2285,-6.2335,-6.2244,-6.2205,-6.2172,-6.2156,-6.2136,-6.2095,-6.2532,-6.2532,-6.2533,0,0,-6.0474,-6.0667,-6.0697,-6.0915,-6.1052,-6.1115,-6.1363,-6.1421,-6.1468,-6.1767,-6.1813,-6.1945,-6.2125,-6.2123,-6.2131,-6.2222,-6.2048,-6.2152,-6.2124,-6.2126,-6.2115,-6.2073,-6.2036,-6.2521,-6.2523,-6.2525,0,0,-6.0209,-6.0367,-6.0368,-6.0501,-6.0707,-6.0879,-6.0878,-6.113,-6.123,-6.1284,-6.1507,-6.1563,-6.1714,-6.183,-6.1908,-6.1685,-6.1843,-6.1709,-6.1502,-6.148,-6.1445,-6.1415,-6.1324,-6.1289,-6.1695,-6.1694,-6.1693,0,-5.9977,-6.0091,-6.0346,-6.0391,-6.0474,-6.0758,-6.0754,-6.0869,-6.1091,-6.1138,-6.1241,-6.1432,-6.1574,-6.1598,-6.1543,-6.1603,-6.16,-6.1678,-6.1432,-6.1404,-6.138,-6.1295,-6.1261,-6.1675,-6.1677,-6.1679,-6.1681,0,-5.9791,-5.9865,-5.984,-6.0055,-6.0138,-6.0157,-6.0406,-6.0458,-6.0612,-6.0769,-6.0812,-6.0994,-6.1128,-6.1149,-6.1298,-6.1192,-6.1241,-6.1384,-6.1557,-6.1316,-6.1239,-6.121,-6.1649,-6.1655,-6.1661,-6.1666,0,0,-5.9298,-5.9657,-5.9642,-5.9739,-5.9988,-6.0045,-6.0074,-6.0215,-6.0247,-6.0393,-6.0415,-6.0536,-6.0669,-6.0758,-6.0922,-6.0904,-6.07,-6.1049,-6.1057,-6.0967,-6.0581,-6.0462,-6.0421,-6.0813,-6.0808,-6.0804,-6.0561,0,-5.9065,-5.9142,-5.9371,-5.9373,-5.9438,-5.9708,-5.9732,-5.988,-6.0028,-6.0098,-6.026,-6.0337,-6.0513,-6.0567,-6.0562,-6.0726,-6.0624,-6.0749,-6.0822,-6.0822,-6.0757,-6.0384,-6.0261,-6.0023,-6.0535,-6.053,-6.0527,0,-5.8802,-5.8933,-5.8943,-5.9184,-5.922,-5.9238,-5.938,-5.9449,-5.962,-5.9728,-5.9826,-6.0011,-6.0046,-6.0215,-6.026,-6.0338,-6.0384,-6.0468,-6.0464,-6.0469,-6.065,-6.0366,-5.9954,-5.9912,-6.0485,-6.0489,-6.0492,0,-5.8426,-5.8607,-5.8635,-5.8712,-5.8996,-5.9,-5.9117,-5.9298,-5.9364,-5.9487,-5.9531,-5.9654,-5.9717,-5.9803,-6.0011,-6.0118,-6.0027,-6.0217,-6.0105,-6.0099,-6.0064,-6.0061,-5.9639,-6.0113,-6.0114,-6.0114,-6.0115,0,-5.8134,-5.8125,-5.8469,-5.8484,-5.848,-5.8742,-5.8727,-5.8869,-5.9026,-5.9065,-5.9308,-5.9337,-5.9618,-5.9676,-5.984,-5.9844,-5.9874,-5.9953,-5.9993,-5.9924,-5.9912,-5.9947,-5.9964,-6.0105,-6.0107,-6.0109,-6.0111,0,-5.7709,-5.7942,-5.7987,-5.8255,-5.8321,-5.8304,-5.8529,-5.8548,-5.8714,-5.8759,-5.8785,-5.9039,-5.912,-5.9341,-5.9478,-5.9588,-5.954,-5.9627,-5.9483,-5.9507,-5.9378,-5.9382,-5.8954,-5.8906,-5.9421,-5.9416,-5.9411,0,-5.7501,-5.7502,-5.7771,-5.7819,-5.7928,-5.8002,-5.8073,-5.8329,-5.8391,-5.8584,-5.8576,-5.868,-5.8774,-5.889,-5.908,-5.9183,-5.9265,-5.9109,-5.9281,-5.9208,-5.9246,-5.9238,-5.9233,-5.9065,-5.9058,-5.9053,-5.9049,0,-5.7103,-5.7218,-5.7316,-5.7451,-5.753,-5.7647,-5.7777,-5.78,-5.8087,-5.8142,-5.8232,-5.8306,-5.8448,-5.8541,-5.8675,-5.8786,-5.8957,-5.8995,-5.8972,-5.8893,-5.8805,-5.8838,-5.9365,-5.9,-5.9005,-5.9009,-5.9011,-5.9013,-5.6774,-5.6783,-5.6973,-5.707,-5.7197,-5.7312,-5.7341,-5.7511,-5.7594,-5.7733,-5.788,-5.795,-5.8114,-5.8313,-5.8411,-5.8463,-5.8555,-5.8525,-5.8516,-5.85,-5.8462,-5.8808,-5.849,-5.8492,-5.8493,-5.8495,-5.8496,0,-5.6377,-5.6513,-5.6602,-5.6778,-5.6851,-5.7023,-5.7174,-5.722,-5.7282,-5.7426,-5.7516,-5.7613,-5.7705,-5.7904,-5.8011,-5.8013,-5.8093,-5.8031,-5.8026,-5.8045,-5.8381,-5.8384,-5.7963,-5.7963,-5.7963,-5.7963,-5.7963,-5.7963,-5.6178,-5.6201,-5.6337,-5.642,-5.6556,-5.6633,-5.6703,-5.6805,-5.6921,-5.7021,-5.7102,-5.7235,-5.7397,-5.7517,-5.7604,-5.766,-5.7681,-5.7589,-5.7667,-5.7974,-5.8024,-5.8071,-5.8075,-5.7595,-5.7595,-5.7327,-5.7324,-5.7322]}]]